TimeEST,TemperatureF,Dew PointF,Humidity,Sea Level PressureIn,VisibilityMPH,Wind Direction,Wind SpeedMPH,Gust SpeedMPH,PrecipitationIn,Events,Conditions,WindDirDegrees,DateUTC
12:53 AM,33.1,21.9,64,29.98,10.0,NW,5.8,20.7,N/A,,Overcast,320,2013-02-25 05:53:00
1:53 AM,33.1,21.9,64,29.99,10.0,North,9.2,-,N/A,,Overcast,350,2013-02-25 06:53:00
2:53 AM,33.1,21.9,64,30.01,10.0,North,8.1,20.7,N/A,,Overcast,350,2013-02-25 07:53:00
3:53 AM,32.0,21.9,66,30.01,10.0,NNW,4.6,-,N/A,,Clear,330,2013-02-25 08:53:00
4:53 AM,30.9,21.9,69,30.04,10.0,West,3.5,-,N/A,,Clear,280,2013-02-25 09:53:00
5:53 AM,30.0,21.9,72,30.06,10.0,Calm,Calm,-,N/A,,Clear,0,2013-02-25 10:53:00
6:53 AM,30.9,24.1,76,30.08,10.0,Calm,Calm,-,N/A,,Clear,0,2013-02-25 11:53:00
7:53 AM,34.0,26.1,73,30.10,10.0,North,4.6,-,N/A,,Partly Cloudy,10,2013-02-25 12:53:00
8:53 AM,36.0,26.1,67,30.11,10.0,NNE,6.9,-,N/A,,Partly Cloudy,20,2013-02-25 13:53:00
9:53 AM,37.9,24.1,57,30.12,10.0,NNW,10.4,-,N/A,,Clear,340,2013-02-25 14:53:00
10:53 AM,39.9,24.1,53,30.12,10.0,North,8.1,-,N/A,,Clear,360,2013-02-25 15:53:00
11:53 AM,41.0,24.1,51,30.12,10.0,NW,8.1,-,N/A,,Clear,310,2013-02-25 16:53:00
12:53 PM,41.0,25.0,53,30.13,10.0,NW,5.8,-,N/A,,Mostly Cloudy,320,2013-02-25 17:53:00
1:53 PM,44.1,26.1,49,30.12,10.0,NNW,8.1,-,N/A,,Clear,340,2013-02-25 18:53:00
2:53 PM,42.1,24.1,49,30.14,10.0,WNW,6.9,-,N/A,,Partly Cloudy,290,2013-02-25 19:53:00
3:53 PM,42.1,24.1,49,30.15,10.0,NW,4.6,-,N/A,,Partly Cloudy,320,2013-02-25 20:53:00
4:53 PM,42.1,23.0,47,30.16,10.0,NNW,3.5,-,N/A,,Overcast,330,2013-02-25 21:53:00
5:53 PM,41.0,24.1,51,30.17,10.0,North,4.6,-,N/A,,Overcast,350,2013-02-25 22:53:00
6:53 PM,39.9,25.0,55,30.21,10.0,North,4.6,-,N/A,,Overcast,350,2013-02-25 23:53:00
7:53 PM,39.0,24.1,55,30.22,10.0,NE,4.6,-,N/A,,Overcast,50,2013-02-26 00:53:00
8:53 PM,36.0,25.0,64,30.22,10.0,Calm,Calm,-,N/A,,Mostly Cloudy,0,2013-02-26 01:53:00
9:53 PM,32.0,26.1,79,30.24,10.0,Calm,Calm,-,N/A,,Mostly Cloudy,0,2013-02-26 02:53:00
10:53 PM,32.0,26.1,79,30.25,10.0,Calm,Calm,-,N/A,,Overcast,0,2013-02-26 03:53:00
11:53 PM,30.0,26.1,85,30.24,9.0,Calm,Calm,-,N/A,,Mostly Cloudy,0,2013-02-26 04:53:00